Location: Little Chesterford
(52.0500°N, 0.1833°E)
Time: 11:51:07
(UTC+00:00)

Meteor 1-22 Rocket - Pass Details

Date: 26 September 2023
Orbit: 787 x 940 km, 81.2° (Epoch: 10 December)

Event Time Altitude Azimuth Distance (km) Brightness Sun altitude
Exits shadow 20:32:22 59° 70° (ENE) 913 4.1 -24.7°
Drops below altitude 10° 20:37:06 10° 18° (NNE) 2,369 6.7 -25.3°
Sets 20:39:31 0° 16° (NNE) 3,312 7.5 -25.6°
